Regional Weather Roundup
Issued by NWS

Home | Current Version | Previous Version | Text Only | Print | Product List | Glossary On
Versions: 1 2 3 4 5 6 7 8 9 10 11 12 13 14 15 16 17 18 19 20 21 22 23 24 25 26 27 28 29 30 31 32 33 34 35 36 37 38 39 40 41 42 43 44 45 46 47 48 49 50
463
ASUS43 KMKX 270911
RWRWI

WISCONSIN REGIONAL WEATHER ROUNDUP
NATIONAL WEATHER SERVICE MILWAUKEE/SULLIVAN WI
300 AM CST MON FEB 27 2017

NOTE: "FAIR" INDICATES FEW OR NO CLOUDS BELOW 12,000 FEET WITH NO
SIGNIFICANT WEATHER AND/OR OBSTRUCTIONS TO VISIBILITY.

WIZ001-002-006>008-014>016-023>028-271000-
NORTHWEST WISCONSIN

CITY           SKY/WX    TMP DP  RH WIND       PRES   REMARKS
SUPERIOR ARPT  CLOUDY    15   8  75 CALM      29.99F
ASHLAND        CLOUDY    11   6  81 CALM      30.00S
HAYWARD        CLOUDY    18  12  77 CALM      29.97R
SIREN          CLOUDY    24  15  68 CALM      29.96F
CUMBERLAND     FLURRIES  23  18  80 CALM      29.95F
RICE LAKE      FLURRIES  25  17  72 E5        29.98F WCI  19
CHETEK         CLOUDY    24  17  72 E3        29.97F
LADYSMITH      CLOUDY    22  13  69 SE5       29.99F WCI  16
EAU CLAIRE     CLOUDY    25  20  81 S3        29.98F
MENOMONIE      MOCLDY    25  19  78 SE3       29.99S
NEW RICHMOND   CLOUDY    27  20  75 SE5       29.96S WCI  21
OSCEOLA        CLOUDY    27  19  72 E5        29.98F WCI  21
$$

WIZ003>005-009-010-017-018-271000-
NORTH CENTRAL WISCONSIN

CITY           SKY/WX    TMP DP  RH WIND       PRES   REMARKS
MANITOWISH WTR CLOUDY    -1  -3  88 SE3       29.96F
ARBOR VITAE    MOCLDY     5   2  86 CALM        N/A
WOODRUFF       MOCLDY     5   2  86 CALM        N/A
RHINELANDER    CLOUDY   N/A N/A N/A CALM      29.99R
EAGLE RIVER    PTCLDY     0  -4  83 CALM      29.98S
LAND O LAKES   PTCLDY    -7 -11  82 CALM      29.99R
PHILLIPS       CLOUDY    11   8  89 E3        29.96F
TOMAHAWK       CLOUDY     8   6  89 CALM      29.99S
MEDFORD        CLOUDY    19  14  79 E3        29.97S
MERRILL        NOT AVBL
$$

WIZ029-030-035-036-043>047-271000-
CENTRAL WISCONSIN

CITY           SKY/WX    TMP DP  RH WIND       PRES   REMARKS
WAUSAU         CLOUDY    22  16  78 E3        29.99S
MOSINEE        CLOUDY    21  19  93 CALM      30.01S
MARSHFIELD     CLOUDY    23  20  88 SW6       29.99R WCI  16
STEVENS POINT  CLOUDY    16  16  99 CALM      30.02S FOG
WAUPACA        CLEAR     22  18  85 CALM      30.05S
WAUTOMA        NOT AVBL
WISC RAPIDS    CLOUDY    22  20  92 S5        30.03S WCI  16
CAMP DOUGLAS   PTCLDY    17  15  90 SE3       30.02F
$$

WIZ011>013-019>022-031-037>040-048>050-271000-
NORTHEAST WISCONSIN

CITY           SKY/WX    TMP DP  RH WIND       PRES   REMARKS
ANTIGO         CLOUDY    13  10  90 CALM      29.99F
SHAWANO        PTCLDY    22  18  84 CALM      30.06R
OCONTO         PTCLDY    20  13  74 CALM      30.06S
STURGEON BAY   MOCLDY    24  15  68 N3        30.07R
GREEN BAY      CLEAR     25  20  81 NE7       30.07R WCI  17
MANITOWOC      CLEAR     27  21  78 W5        30.07R WCI  22
APPLETON       CLEAR     25  19  80 W5        30.03R WCI  19
CLINTONVILLE   CLEAR     19  18  93 CALM      30.05S
OSHKOSH        CLEAR     25  19  78 CALM      30.05R
$$

WIZ032>034-041-042-053>061-271000-
SOUTHWEST WISCONSIN

CITY           SKY/WX    TMP DP  RH WIND       PRES   REMARKS
LA CROSSE      CLEAR     26  22  84 S7        30.03F WCI  18
SPARTA         CLEAR     16  15  96 CALM      30.04S
VIROQUA        CLEAR     23  22  96 S6        30.02S WCI  15
BOSCOBEL       CLEAR     21  18  88 CALM      30.07S FOG
PRAIRIE DU CHI PTCLDY    23  21  92 CALM      30.06F
PLATTEVILLE    CLEAR     27  26  96 CALM      30.05F
$$

WIZ056-057-062-063-064-067-068-271000-
SOUTH CENTRAL WISCONSIN

CITY           SKY/WX    TMP DP  RH WIND       PRES   REMARKS
REEDSBURG      CLEAR     23  23  99 CALM      30.05S
BARABOO/DELLS  CLEAR     25  22  89 S5        30.05S WCI  19
LONE ROCK      CLEAR     23  20  88 CALM      30.07S
MINERAL POINT  CLEAR     30  28  93 CALM      30.04F
MADISON        CLEAR     24  22  91 S3        30.07R
MIDDLETON      CLEAR     26  23  88 S3        30.07S
WATERTOWN      CLEAR     22  22  99 CALM      30.07S
MONROE         CLEAR     30  25  80 W5        30.05S WCI  25
JANESVILLE     PTCLDY    27  27 100 CALM      30.08R
$$

WIZ051-052-058>065-066-070>072-271000-
SOUTHEAST WISCONSIN

CITY           SKY/WX    TMP DP  RH WIND       PRES   REMARKS
MILWAUKEE      CLEAR     29  20  69 CALM      30.08S
WAUKESHA       CLEAR     25  21  86 CALM      30.08S
MILWAUKEE/TIMM CLEAR     28  21  74 CALM      30.08S
RACINE         PTCLDY    25  21  85 SW5       30.11R WCI  19
KENOSHA        PTCLDY    29  25  85 CALM      30.09R
FOND DU LAC    CLEAR     27  19  72 SW5       30.06R WCI  22
SHEBOYGAN      CLEAR     26  20  77 CALM      30.07R
WEST BEND      CLEAR     27  23  86 CALM      30.07R
JUNEAU         CLEAR     27  24  88 S3        30.08R
$$

LSZ147-162-271000-
LAKE SUPERIOR

STATION/POSITION TIME  TEMP    WIND        PRES    WAVE
                       AIR SEA DIR/SP/G            HT/PER
                 (UTC) (F)     (DEG/KT/KT) (MB)    (FT/S)
DEVILS ISLAND    0900   24     210/  8/ 10 1016.5R
PORT WING        0840   13     150/  3/  5 1015.6S
SAXON HARBOR     0840   11     200/  6/  7 1015.6F
$$

LMZ867-665-643>646-271000-
LAKE MICHIGAN

STATION/POSITION TIME  TEMP    WIND        PRES    WAVE
                       AIR SEA DIR/SP/G            HT/PER
                 (UTC) (F)     (DEG/KT/KT) (MB)    (FT/S)
CHAMBERS ISLAND  0840   24     310/  4/  8 1017.9R
NORTHPORT PIER   0840   25     320/  7/ 12 1017.9R
SISTER BAY       0805   23     360/  8/  9   N/A
KEWAUNEE LAKESHO 0848   26     340/  2/  4 1017.7R
SHEBOYGAN LAKESH 0900   31     280/  8/  9 1018.8R
PORT WASHINGTON  0830   30     280/  3/  6 1019.3S
MILWAUKEE LAKESH 0850   34     270/  5/  5   N/A
KENOSHA   LAKESH 0900   34     270/  6/  7 1019.3
$$

TC  - TEMPERATURE IN CELSIUS
VSB - VISIBILITY IN STATUTE MILES
WCI - WIND CHILL INDEX
HX  - HEAT INDEX





USA.gov is the U.S. government's official web portal to all federal, state and local government web resources and services.